Weather History for Vidalia, GA

Change the Weather History Date:

Monday, December 31, 2012

  Actual Average (KAZE) Record (KAZE)
Temperature  
Mean Temperature 48 °F -  
Max Temperature 64 °F 43 °F 80 °F (2013)
Min Temperature 32 °F 24 °F 29 °F (2012)
Degree Days  
Heating Degree Days 17    
Moisture  
Dew Point 40 °F    
Average Humidity 80    
Maximum Humidity 100    
Minimum Humidity 44    
Precipitation  
Precipitation 0.00 in - - ()
Sea Level Pressure  
Sea Level Pressure 30.33 in    
Wind  
Wind Speed 1 mph (SSW)    
Max Wind Speed 9 mph    
Max Gust Speed -    
Visibility 10 miles    
Events      
Averages and records for this station are not official NWS values.
T = Trace of Precipitation, MM = Missing Value Source: NWS Daily Summary

Daily Weather History Graph

Daily Weather History Graph

Search for Another Location

Airport:

Trip Planner

Search our weather history database for the weather conditions in past years. The results will help you decide how hot, cold, wet, or windy it might be!

Date:

Astronomy

Dec. 31, 2012 Rise Set
Actual Time 7:30 AM EST 5:35 PM EST
Civil Twilight 7:03 AM EST 6:02 PM EST
Nautical Twilight 6:32 AM EST 6:32 PM EST
Astronomical Twilight 6:03 AM EST 7:02 PM EST
Moon 8:52 PM EST (12/31) 9:22 AM EST (12/31)
Length of Visible Light 10h 58m
Length of Day
10h 04m
Waning Gibbous, 90% of the Moon is Illuminated
Dec 31
Waning Gibbous
Jan 4
Last Quarter
Jan 11
New
Jan 18
First Quarter
Jan 26
Full

Hourly Weather History & Observations

Time (EST) Temp. Windchill Dew Point Humidity Pressure Visibility Wind Dir Wind Speed Gust Speed Precip Events Conditions
12:15 AM 35.6 °F - 32.0 °F 87% 30.41 in 10.0 mi Calm Calm - N/A   Clear
12:35 AM 33.8 °F - 32.0 °F 93% 30.40 in 10.0 mi Calm Calm - N/A   Clear
12:55 AM 33.8 °F - 32.0 °F 93% 30.39 in 10.0 mi Calm Calm - N/A   Clear
1:15 AM 33.8 °F - 32.0 °F 93% 30.39 in 10.0 mi Calm Calm - N/A   Clear
1:35 AM 32.0 °F - 32.0 °F 100% 30.41 in 10.0 mi Calm Calm - N/A   Clear
1:55 AM 32.0 °F - 32.0 °F 100% 30.40 in 10.0 mi Calm Calm - N/A   Clear
2:15 AM 32.0 °F - 32.0 °F 100% 30.39 in 10.0 mi Calm Calm - N/A   Clear
2:35 AM 32.0 °F - 32.0 °F 100% 30.40 in 10.0 mi Calm Calm - N/A   Clear
2:55 AM 32.0 °F - 32.0 °F 100% 30.41 in 10.0 mi Calm Calm - N/A   Clear
3:15 AM 32.0 °F - 32.0 °F 100% 30.40 in 10.0 mi Calm Calm - N/A   Clear
3:35 AM 32.0 °F - 32.0 °F 100% 30.39 in 10.0 mi Calm Calm - N/A   Clear
3:55 AM 33.8 °F - 32.0 °F 93% 30.39 in 10.0 mi Calm Calm - N/A   Clear
4:15 AM 33.8 °F - 32.0 °F 93% 30.40 in 10.0 mi Calm Calm - N/A   Clear
4:35 AM 33.8 °F - 32.0 °F 93% 30.40 in 10.0 mi Calm Calm - N/A   Clear
4:55 AM 33.8 °F - 32.0 °F 93% 30.41 in 10.0 mi Calm Calm - N/A   Clear
5:15 AM 32.0 °F - 32.0 °F 100% 30.43 in 10.0 mi Calm Calm - N/A   Clear
5:35 AM 32.0 °F - 32.0 °F 100% 30.42 in 10.0 mi Calm Calm - N/A   Clear
5:55 AM 32.0 °F - 32.0 °F 100% 30.39 in 10.0 mi Calm Calm - N/A   Clear
6:15 AM 32.0 °F - 32.0 °F 100% 30.41 in 10.0 mi Calm Calm - N/A   Clear
6:35 AM 32.0 °F - 32.0 °F 100% 30.41 in 10.0 mi Calm Calm - N/A   Clear
6:55 AM 32.0 °F - 32.0 °F 100% 30.42 in 10.0 mi Calm Calm - N/A   Clear
7:15 AM 32.0 °F - 32.0 °F 100% 30.42 in 10.0 mi Calm Calm - N/A   Clear
7:35 AM 32.0 °F - 32.0 °F 100% 30.41 in 10.0 mi Calm Calm - N/A   Clear
7:55 AM 33.8 °F - 32.0 °F 93% 30.41 in 10.0 mi Calm Calm - N/A   Clear
8:15 AM 33.8 °F - 32.0 °F 93% 30.41 in 10.0 mi Calm Calm - N/A   Clear
8:35 AM 35.6 °F - 33.8 °F 93% 30.42 in 10.0 mi Calm Calm - N/A   Clear
8:55 AM 41.0 °F - 35.6 °F 81% 30.42 in 10.0 mi Calm Calm - N/A   Clear
9:35 AM 44.6 °F - 37.4 °F 76% 30.40 in 10.0 mi Calm Calm - N/A   Clear
9:55 AM 46.4 °F 45.2 °F 37.4 °F 71% 30.40 in 10.0 mi ENE 3.5 mph - N/A   Clear
10:35 AM 51.8 °F - 33.8 °F 50% 30.41 in 10.0 mi East 3.5 mph - N/A   Clear
10:55 AM 53.6 °F - 33.8 °F 47% 30.40 in 10.0 mi Calm Calm - N/A   Clear
11:15 AM 53.6 °F - 32.0 °F 44% 30.39 in 10.0 mi Calm Calm - N/A   Clear
11:35 AM 55.4 °F - 33.8 °F 44% 30.38 in 10.0 mi Calm Calm - N/A   Clear
11:55 AM 55.4 °F - 37.4 °F 51% 30.36 in 10.0 mi Calm Calm - N/A   Clear
12:15 PM 57.2 °F - 41.0 °F 55% 30.35 in 10.0 mi SW 4.6 mph - N/A   Clear
12:35 PM 59.0 °F - 41.0 °F 51% 30.33 in 10.0 mi WSW 4.6 mph - N/A   Clear
12:55 PM 59.0 °F - 42.8 °F 55% 30.31 in 10.0 mi South 3.5 mph - N/A   Clear
1:15 PM 60.8 °F - 42.8 °F 52% 30.30 in 10.0 mi SSE 3.5 mph - N/A   Clear
1:55 PM 62.6 °F - 44.6 °F 52% 30.29 in 10.0 mi SSW 6.9 mph - N/A   Clear
2:15 PM 62.6 °F - 46.4 °F 55% 30.28 in 10.0 mi SSW 9.2 mph - N/A   Clear
2:35 PM 62.6 °F - 46.4 °F 55% 30.27 in 10.0 mi South 8.1 mph - N/A   Clear
2:55 PM 64.4 °F - 46.4 °F 52% 30.26 in 10.0 mi SSW 8.1 mph - N/A   Clear
3:15 PM 64.4 °F - 46.4 °F 52% 30.26 in 10.0 mi WSW 5.8 mph - N/A   Clear
3:35 PM 64.4 °F - 46.4 °F 52% 30.25 in 10.0 mi WSW 9.2 mph - N/A   Clear
3:55 PM 62.6 °F - 48.2 °F 59% 30.25 in 10.0 mi SW 5.8 mph - N/A   Clear
4:15 PM 64.4 °F - 48.2 °F 56% 30.25 in 10.0 mi SSW 5.8 mph - N/A   Clear
4:35 PM 62.6 °F - 48.2 °F 59% 30.24 in 10.0 mi SSW 4.6 mph - N/A   Clear
4:55 PM 62.6 °F - 50.0 °F 63% 30.24 in 10.0 mi SSW 5.8 mph - N/A   Clear
5:15 PM 60.8 °F - 50.0 °F 68% 30.24 in 10.0 mi SSW 4.6 mph - N/A   Clear
5:35 PM 59.0 °F - 50.0 °F 72% 30.24 in 10.0 mi SSW 3.5 mph - N/A   Clear
5:55 PM 57.2 °F - 50.0 °F 77% 30.25 in 10.0 mi Calm Calm - N/A   Clear
6:15 PM 55.4 °F - 50.0 °F 82% 30.26 in 10.0 mi Calm Calm - N/A   Clear
6:35 PM 53.6 °F - 50.0 °F 88% 30.26 in 10.0 mi Calm Calm - N/A   Mostly Cloudy
6:55 PM 53.6 °F - 50.0 °F 88% 30.26 in 10.0 mi Calm Calm - N/A   Overcast
7:15 PM 53.6 °F - 50.0 °F 88% 30.25 in 10.0 mi Calm Calm - N/A   Overcast
7:35 PM 53.6 °F - 50.0 °F 88% 30.25 in 10.0 mi Calm Calm - N/A   Overcast
7:55 PM 51.8 °F - 50.0 °F 94% 30.25 in 10.0 mi Calm Calm - N/A   Mostly Cloudy
8:15 PM 51.8 °F - 48.2 °F 88% 30.25 in 10.0 mi Calm Calm - N/A   Mostly Cloudy
8:35 PM 51.8 °F - 48.2 °F 88% 30.25 in 10.0 mi Calm Calm - N/A   Overcast
8:55 PM 53.6 °F - 50.0 °F 88% 30.25 in 10.0 mi Calm Calm - N/A   Overcast
9:15 PM 53.6 °F - 48.2 °F 82% 30.25 in 10.0 mi Calm Calm - N/A   Overcast
9:35 PM 55.4 °F - 48.2 °F 77% 30.25 in 10.0 mi Calm Calm - N/A   Overcast
9:55 PM 53.6 °F - 48.2 °F 82% 30.25 in 10.0 mi Calm Calm - N/A   Overcast
10:15 PM 53.6 °F - 50.0 °F 88% 30.25 in 10.0 mi Calm Calm - N/A   Overcast
10:35 PM 53.6 °F - 50.0 °F 88% 30.24 in 10.0 mi Calm Calm - N/A   Overcast
10:55 PM 53.6 °F - 50.0 °F 88% 30.24 in 10.0 mi Calm Calm - N/A   Overcast
11:15 PM 53.6 °F - 48.2 °F 82% 30.23 in 10.0 mi Calm Calm - N/A   Overcast
11:35 PM 51.8 °F - 50.0 °F 94% 30.22 in 10.0 mi Calm Calm - N/A   Overcast
11:55 PM 51.8 °F - 50.0 °F 94% 30.21 in 10.0 mi Calm Calm - N/A   Overcast